Regional Weather Roundup
Issued by NWS

Home | Current Version | Previous Version | Graphics & Text | Print | Product List | Glossary On
Versions: 1 2 3 4 5 6 7 8 9 10 11 12 13 14 15 16 17 18 19 20 21 22 23 24 25 26 27 28 29 30 31 32 33 34 35 36 37 38 39 40 41 42 43 44 45 46 47 48
889
ASUS45 KCYS 230410
RWRWY

WYOMING REGIONAL WEATHER ROUNDUP
NATIONAL WEATHER SERVICE CHEYENNE WY
1000 PM MDT WED MAR 22 2017

NOTE:  "FAIR" INDICATES FEW OR NO CLOUDS BELOW 12,000 FEET
WITH NO SIGNIFICANT WEATHER AND/OR OBSTRUCTIONS TO VISIBILITY.

WYZ001-230500-
YELLOWSTONE NATIONAL PARK

CITY           SKY/WX    TMP DP  RH WIND       PRES   REMARKS
LK YELLOWSTONE   N/A     30  28  92 CALM      29.90F
W YELLOWSTONE  NOT AVBL

$$
WYZ002>013-054>058-071-098>099-230500-
NORTHERN WYOMING

CITY           SKY/WX    TMP DP  RH WIND       PRES   REMARKS
JACKSON        CLOUDY    37  36  93 NW6       29.88S WCI  33
CODY           FAIR      52  29  41 W6        29.79R
GREYBULL       FAIR      56  39  53 W3        29.70S
WORLAND        FAIR      53  38  56 S8        29.72S
SHERIDAN       FAIR      42  38  85 SW5       29.76S
BUFFALO        FAIR      46  38  73 W9        29.80R
GILLETTE       FAIR      43  39  86 S5        29.76S
HULETT         FAIR      48  41  76 E3        29.78R
NEWCASTLE      FAIR      55  36  47 SE8       29.78S

$$
WYZ014>020-022>026-101>103-230500-
CENTRAL WYOMING

CITY           SKY/WX    TMP DP  RH WIND       PRES   REMARKS
BIG PINEY      MOCLDY    33  33 100 NE9       29.89F WCI  25
PINEDALE       LGT RAIN  34  34 100 N7        29.89F WCI  28
DUBOIS         CLOUDY    39  28  65 SW8       29.86S WCI  34
LANDER         FAIR      48  33  56 SE3       29.79R
RIVERTON       MOCLDY    48  38  68 SE9       29.80S
CASPER         FAIR      47  39  74 W14       29.83R
DOUGLAS        MOCLDY    48  39  71 CALM      29.81S

$$
WYZ021-027>030-104>119-230500-
SOUTHERN WYOMING

CITY           SKY/WX    TMP DP  RH WIND       PRES   REMARKS
EVANSTON       CLOUDY    41  34  76 E6        29.85S
KEMMERER       LGT RAIN  36  34  93 SW10      29.88S WCI  28
FORT BRIDGER   CLOUDY    42  37  82 N5        29.90R
ROCK SPRINGS   LGT RAIN  44  39  82 NW3       29.87S
DIXON            N/A     51  32  47 S16G22    29.92R
RAWLINS        FAIR      50  31  48 W8        29.87S
SARATOGA       FAIR      50  28  43 S9        29.90S
LARAMIE        FAIR      45  24  43 SW10      29.88F
CHEYENNE       MOCLDY    54  32  43 SE3       29.86F
TORRINGTON     FAIR      55  34  45 E17       29.79R
PINE BLUFFS    FAIR      55  36  47 S20       29.86S

$$




USA.gov is the U.S. government's official web portal to all federal, state and local government web resources and services.